Muskegon, MI

1:13 AM EDT on May 22, 2018 (GMT -0400)
Muskegon County

Weather History for KMKG - October, 2012

Change the Weather History Date:

Saturday, October 6, 2012

  Actual Average Record
Temperature  
Mean Temperature 46 °F 54 °F  
Max Temperature 50 °F 63 °F 82 °F (1900)
Min Temperature 42 °F 45 °F 28 °F (2003)
Degree Days  
Heating Degree Days 19 11  
Month to date heating degree days 52 63  
Since 1 July heating degree days 194 236  
Cooling Degree Days 0 0  
Month to date cooling degree days 0 2  
Year to date cooling degree days 925 563  
Moisture  
Dew Point 32 °F    
Average Humidity 64    
Maximum Humidity 82    
Minimum Humidity 46    
Precipitation  
Precipitation 0.02 in 0.11 in 0.70 in (1949)
Month to date precipitation 0.61 0.63  
Year to date precipitation 21.88 25.10  
Snow  
Snow 0.00 in 0.00 in T in (2001)
Month to date snowfall 0.0 0.0  
Since 1 July snowfall 0.0 0.0  
Since 1 September snowfall 0.0 0.0  
Snow Depth 0.00 in    
Sea Level Pressure  
Sea Level Pressure 30.05 in    
Wind  
Wind Speed 11 mph (NW)    
Max Wind Speed 21 mph    
Max Gust Speed 35 mph    
Visibility 10 miles    
Events Rain    
T = Trace of Precipitation, MM = Missing Value Source: NWS Daily Summary

Daily Weather History Graph

Daily Weather History Graph

Search for Another Location

Airport or City:

Astronomy

Oct. 06, 2012 Rise Set
Actual Time 7:48 AM EDT 7:16 PM EDT
Civil Twilight 7:20 AM EDT 7:44 PM EDT
Nautical Twilight 6:47 AM EDT 8:17 PM EDT
Astronomical Twilight 6:14 AM EDT 8:50 PM EDT
Moon 11:24 PM EDT (10/6) 1:50 PM EDT (10/6)
Length of Visible Light 12h 24m
Length of Day
11h 27m
Waning Gibbous, 65% of the Moon is Illuminated
Oct 6
Waning Gibbous
Oct 8
Last Quarter
Oct 15
New
Oct 21
First Quarter
Oct 29
Full

Hourly Weather History & Observations

Time (EDT) Temp. Windchill Dew Point Humidity Pressure Visibility Wind Dir Wind Speed Gust Speed Precip Events Conditions
12:55 AM 50.0 °F - 30.9 °F 48% 29.96 in 10.0 mi WNW 13.8 mph 20.7 mph N/A   Overcast
1:55 AM 50.0 °F - 30.9 °F 48% 29.97 in 10.0 mi WNW 12.7 mph 19.6 mph N/A   Overcast
2:55 AM 48.0 °F - 33.1 °F 56% 29.98 in 10.0 mi WNW 13.8 mph 25.3 mph N/A   Overcast
3:55 AM 46.0 °F 39.0 °F 28.0 °F 50% 29.97 in 10.0 mi WNW 17.3 mph 28.8 mph N/A   Overcast
4:55 AM 46.0 °F 39.3 °F 28.9 °F 51% 29.97 in 10.0 mi WNW 16.1 mph 20.7 mph N/A   Overcast
5:55 AM 46.0 °F 39.9 °F 28.9 °F 51% 29.98 in 10.0 mi WNW 13.8 mph 20.7 mph N/A   Overcast
6:55 AM 45.0 °F 38.9 °F 28.9 °F 53% 29.99 in 10.0 mi West 12.7 mph 21.9 mph N/A   Overcast
7:55 AM 45.0 °F 39.3 °F 32.0 °F 60% 30.00 in 10.0 mi WNW 11.5 mph 20.7 mph 0.00 in Rain Light Rain
8:55 AM 45.0 °F 39.3 °F 32.0 °F 60% 30.02 in 10.0 mi WNW 11.5 mph 20.7 mph 0.00 in Rain Light Rain
9:55 AM 44.1 °F 40.1 °F 34.0 °F 68% 30.04 in 10.0 mi WNW 6.9 mph - 0.01 in Rain Light Rain
10:55 AM 46.0 °F 40.6 °F 34.0 °F 63% 30.05 in 10.0 mi WNW 11.5 mph 19.6 mph 0.01 in   Overcast
11:55 AM 45.0 °F 38.9 °F 34.0 °F 65% 30.06 in 10.0 mi NW 12.7 mph 21.9 mph 0.00 in Rain Light Rain
12:55 PM 46.0 °F 40.2 °F 32.0 °F 58% 30.07 in 10.0 mi WNW 12.7 mph 21.9 mph 0.00 in   Overcast
1:55 PM 48.0 °F - 32.0 °F 54% 30.07 in 10.0 mi WNW 12.7 mph 20.7 mph N/A   Overcast
2:55 PM 48.0 °F - 30.9 °F 52% 30.08 in 10.0 mi NW 17.3 mph 23.0 mph N/A   Overcast
3:55 PM 46.9 °F - 30.9 °F 54% 30.09 in 10.0 mi NW 12.7 mph 20.7 mph N/A   Overcast
4:55 PM 48.0 °F - 30.9 °F 52% 30.09 in 10.0 mi NNW 12.7 mph - N/A   Overcast
5:55 PM 46.4 °F 41.1 °F 30.2 °F 53% 30.10 in 10.0 mi NNW 11.5 mph - N/A   Overcast
6:55 PM 46.9 °F - 30.9 °F 54% 30.12 in 10.0 mi NNW 6.9 mph - 0.00 in Rain Light Rain
7:55 PM 46.9 °F - 30.0 °F 52% 30.12 in 10.0 mi North 4.6 mph - 0.00 in   Overcast
8:55 PM 46.0 °F 41.9 °F 30.0 °F 54% 30.14 in 10.0 mi North 8.1 mph - N/A   Overcast
9:55 PM 45.0 °F 40.6 °F 33.1 °F 63% 30.14 in 10.0 mi North 8.1 mph - 0.00 in Rain Light Rain
10:55 PM 43.0 °F - 37.0 °F 80% 30.14 in 10.0 mi Calm Calm - 0.00 in Rain Light Rain
11:55 PM 43.0 °F 41.3 °F 36.0 °F 76% 30.14 in 10.0 mi NE 3.5 mph - 0.00 in   Overcast